Tracking 26321 objects as of 28-Nov-2022
HD Live streaming from Space Station
objects crossing your sky now

NOAA 16 DEB

Track NOAA 16 DEB now!
10-day predictions


NORAD ID: 41053
Int'l Code: 2000-055L
Perigee: 787.9 km
Apogee: 838.1 km
Inclination: 99.0 °
Period: 101.0 minutes
Semi major axis: 7184 km
RCS: Unknown
Launch date: September 21, 2000
Source: United States (US)
Launch site: AIR FORCE WESTERN TEST RANGE (AFWTR)

Note: This is SATELLITE DEBRIS
aabbcc
Your satellite tracking list
Your tracking list is empty




NASA's NSSDC Master Catalog

Two Line Element Set (TLE):
1 41053U 00055L   22332.17886184  .00003099  00000-0  13152-2 0  9993
2 41053  98.9815 109.6192 0034930 336.0227  23.9323 14.25780191363760
Source of the keplerian elements: AFSPC